[[{"header":{"parameterUnit":"m.s-1","parameterCategory":2,"la1":30.2991,"la2":30.254,"lo1":-89.0895,"lo2":-89.0444,"dy":0.0017,"dx":0.0017,"nx":28,"ny":28,"refTime":"2025-11-16T09:00:00:Z","depth":"0","parameterNumber":2,"parameterNumberName":"U-component_of_CURRENTS"},"data":[0,0,0,0,0,0,0,0,0,0,0,0,0,0,0,0,0,0,0,0,0,0,0,0,0,0,0,0,0,0,0,0,0,0,0,0,0,0,0,0,0,0,0,0,0,0,0,0,0,0,0,0,0,0,0,0,0,0,-0.2773,-0.2772,0,-0.2603,-0.2601,-0.2598,-0.2501,-0.2501,-0.2501,-0.2501,-0.2251,-0.2245,-0.2239,0,0,0,0,0,0,0,0,0,0,0,0,0,-0.2896,-0.2895,-0.2773,-0.2771,-0.2769,-0.2603,-0.26,-0.2598,-0.2501,-0.2501,-0.2501,-0.2501,-0.2254,-0.2246,-0.2238,0,0,0,0,0,0,0,0,0,0,0,0,0,-0.2795,-0.2895,-0.2774,-0.2702,-0.2694,-0.2603,-0.26,-0.2597,-0.2501,-0.2501,-0.2501,-0.2501,-0.2256,-0.2247,-0.2237,-0.2184,0,0,-0.2208,-0.2204,0,0,0,0,0,0,0,0,-0.2801,-0.279,-0.2715,-0.2707,-0.2698,-0.2574,-0.2552,-0.2456,-0.2502,-0.2573,-0.2501,-0.25,-0.2353,-0.2335,-0.2303,-0.2173,-0.2162,-0.2207,-0.2201,-0.2197,-0.2194,0,0,0,0,0,0,0,-0.2808,-0.2797,-0.2704,-0.2713,-0.2702,-0.2637,-0.2624,-0.2533,-0.2465,-0.2567,-0.256,-0.2543,-0.2348,-0.2313,-0.2297,-0.2158,-0.2207,-0.2199,-0.2193,-0.2189,-0.1989,-0.1989,0,0,0,0,0,0,-0.2838,-0.2804,-0.271,-0.2699,-0.2751,-0.2636,-0.262,-0.2613,-0.2467,-0.2446,-0.2543,-0.2539,-0.233,-0.2308,-0.2287,-0.2172,-0.2197,-0.2188,-0.2182,-0.1988,-0.1989,-0.199,0,0,0,0,0,0,-0.2842,-0.2832,-0.2717,-0.2748,-0.2729,-0.2635,-0.2627,-0.261,-0.2578,-0.245,-0.2427,-0.253,-0.2329,-0.2301,-0.2224,-0.2164,-0.2184,-0.2175,-0.1988,-0.1989,-0.1989,-0.197,0,0,0,0,0,0,-0.2846,-0.2835,-0.2836,-0.2751,-0.2728,-0.266,-0.2627,-0.2607,-0.2569,-0.2561,-0.2431,-0.2407,-0.2326,-0.2239,-0.2214,-0.2151,-0.2167,-0.1987,-0.1988,-0.1989,-0.197,-0.197,-0.197,0,0,0,0,0,-0.2851,-0.2838,-0.2837,-0.2825,-0.2735,-0.266,-0.2642,-0.2573,-0.2569,-0.2546,-0.248,-0.2411,-0.2227,-0.2232,-0.2202,-0.2134,-0.1987,-0.1988,-0.1989,-0.197,-0.197,-0.197,0,0,0,0,0,0,-0.2882,-0.2825,-0.2822,-0.2792,-0.2739,-0.2644,-0.2611,-0.2585,-0.2515,-0.2507,-0.2411,-0.2382,-0.2288,-0.2241,-0.2249,-0.2091,-0.2097,-0.2093,-0.2093,-0.2092,-0.2092,-0.2093,-0.2159,0,0,0,0,0,-0.2898,-0.2884,-0.2818,-0.28,-0.2774,-0.2706,-0.2669,-0.2626,-0.2555,-0.2524,-0.2437,-0.2355,-0.2269,-0.221,-0.2129,-0.204,-0.1991,-0.1987,-0.1986,-0.1986,-0.1974,-0.1865,-0.1852,-0.1993,-0.1993,-0.1993,0,0,-0.2904,-0.2876,-0.2866,-0.2808,-0.2761,-0.2695,-0.2681,-0.2623,-0.2566,-0.2506,-0.2406,-0.2346,-0.2253,-0.2148,-0.2102,-0.2097,-0.1929,-0.1988,-0.1987,-0.1975,-0.1864,-0.185,-0.1837,-0.1994,-0.1994,-0.1994,0,0,-0.289,-0.2889,-0.2858,-0.2813,-0.2748,-0.2697,-0.2691,-0.26,-0.2559,-0.2474,-0.2417,-0.2344,-0.2208,-0.2122,-0.2066,-0.2027,-0.1939,-0.2002,-0.1973,-0.1868,-0.1853,-0.1841,-0.1784,-0.1766,-0.1991,-0.1991,-0.1991,0,-0.2907,-0.2845,-0.2836,-0.2783,-0.2723,-0.2703,-0.2625,-0.2588,-0.2485,-0.2425,-0.2443,-0.2246,-0.2187,-0.2039,-0.2039,-0.2015,-0.1962,-0.197,-0.1862,-0.1848,-0.1835,-0.178,-0.176,-0.199,-0.199,-0.199,-0.199,0,-0.2848,-0.2795,-0.2769,-0.2699,-0.2647,-0.2578,-0.252,-0.2468,-0.2431,-0.2368,-0.2243,-0.2183,-0.2056,-0.2037,-0.2023,-0.1893,-0.189,-0.1877,-0.1851,-0.1818,-0.1764,-0.1744,-0.1989,-0.1989,-0.1989,-0.1989,0,0,-0.2865,-0.2749,-0.2737,-0.2655,-0.2582,-0.2511,-0.2446,-0.233,-0.2254,-0.2197,-0.2074,-0.199,-0.1968,-0.1911,-0.1879,-0.1815,-0.1711,-0.1815,-0.181,-0.1741,-0.1497,-0.1502,-0.1481,-0.1662,-0.1658,-0.1655,-0.1503,0,-0.2803,-0.2658,-0.2637,-0.2487,-0.2373,-0.2347,-0.2277,-0.219,-0.2129,-0.2021,-0.1973,-0.1862,-0.1916,-0.1856,-0.18,-0.1731,-0.1653,-0.1755,-0.1555,-0.155,-0.1541,-0.1455,-0.1443,-0.1305,-0.1483,-0.148,-0.1477,0,-0.2707,-0.2614,-0.2433,-0.2296,-0.2257,-0.2176,-0.2019,-0.1976,-0.1871,-0.1837,-0.175,-0.1717,-0.163,-0.1687,-0.1543,-0.1601,-0.1546,-0.1511,-0.1503,-0.1494,-0.1516,-0.1364,-0.1261,-0.1246,-0.1446,-0.1448,-0.145,0,-0.2573,-0.2459,-0.2289,-0.2236,-0.2098,-0.2008,-0.1963,-0.1864,-0.1776,-0.1708,-0.1638,-0.1555,-0.1503,-0.142,-0.1414,-0.1442,-0.1267,-0.1279,-0.1224,-0.1226,-0.117,-0.1173,-0.1007,-0.1134,-0.1134,-0.1135,-0.1135,0,-0.2414,-0.2278,-0.22,-0.2068,-0.1876,-0.1882,-0.1675,-0.1658,-0.1582,-0.146,-0.1528,-0.1446,-0.1433,-0.1356,-0.1335,-0.1237,-0.1191,-0.1192,-0.1163,-0.1171,-0.1175,-0.1126,-0.1156,-0.1129,-0.1131,-0.1132,-0.1133,0,-0.2166,-0.2141,-0.1925,-0.1802,-0.1748,-0.1601,-0.1455,-0.134,-0.1376,-0.1224,-0.1202,-0.1286,-0.1266,-0.1248,-0.1145,-0.113,-0.1017,-0.1006,-0.1058,-0.1038,-0.0972,-0.1005,-0.0836,-0.0807,-0.0882,-0.0881,-0.088,0,-0.1961,-0.1825,-0.1675,-0.1555,-0.1454,-0.1274,-0.1143,-0.1159,-0.1053,-0.1124,-0.1034,-0.1074,-0.11,-0.1037,-0.1011,-0.0935,-0.0952,-0.0858,-0.09,-0.0935,-0.0948,-0.0992,-0.0984,-0.0827,-0.0826,-0.0825,-0.0824,0,-0.1549,-0.1542,-0.1401,-0.1196,-0.1027,-0.0865,-0.0716,-0.0614,-0.0685,-0.0655,-0.0737,-0.0829,-0.0914,-0.094,-0.0914,-0.0862,-0.0855,-0.0832,-0.0813,-0.0837,-0.0922,-0.0894,-0.101,-0.0814,-0.0815,-0.0816,-0.0817,-0.0817,-0.1231,-0.1102,-0.0992,-0.0804,-0.0672,-0.0533,-0.0406,-0.0333,-0.0246,-0.0287,-0.0438,-0.0577,-0.0816,-0.0844,-0.0792,-0.0723,-0.0764,-0.0695,-0.0715,-0.0745,-0.0753,-0.0883,-0.0698,-0.0698,-0.0698,-0.0699,-0.0699,0,-0.0817,-0.0777,-0.0603,-0.0445,-0.0336,-0.0331,-0.0181,-0.013,-0.0075,-0.0067,-0.0159,-0.0368,-0.0519,-0.0657,-0.0687,-0.0628,-0.0615,-0.0604,-0.0645,-0.0627,-0.0666,-0.0702,-0.0576,-0.0576,-0.0576,-0.0576,-0.0576,-0.0576,-0.0579,-0.0395,-0.0396,-0.0177,-0.0124,-0.0007,0.0039,0.0069,0.0097,0.0097,0.0055,-0.0052,-0.0361,-0.0604,-0.0631,-0.0591,-0.0568,-0.0571,-0.0558,-0.0594,-0.0605,-0.0615,-0.0651,-0.0517,-0.0517,-0.0506,-0.0506,-0.0506]},{"header":{"parameterUnit":"m.s-1","parameterCategory":2,"la1":30.2991,"la2":30.254,"lo1":-89.0895,"lo2":-89.0444,"dy":0.0017,"dx":0.0017,"nx":28,"ny":28,"refTime":"2025-11-16T09:00:00:Z","depth":"0","parameterNumber":3,"parameterNumberName":"V-component_of_CURRENTS"},"data":[0,0,0,0,0,0,0,0,0,0,0,0,0,0,0,0,0,0,0,0,0,0,0,0,0,0,0,0,0,0,0,0,0,0,0,0,0,0,0,0,0,0,0,0,0,0,0,0,0,0,0,0,0,0,0,0,0,0,0.1294,0.1295,0,0.1421,0.1423,0.1424,0.1504,0.1504,0.1504,0.1504,0.1614,0.1616,0.1619,0,0,0,0,0,0,0,0,0,0,0,0,0,0.1233,0.1233,0.1294,0.1296,0.1297,0.1421,0.1423,0.1424,0.1504,0.1504,0.1504,0.1505,0.1613,0.1616,0.1619,0,0,0,0,0,0,0,0,0,0,0,0,0,0.1301,0.1233,0.1294,0.135,0.1356,0.142,0.1423,0.1425,0.1503,0.1504,0.1504,0.1505,0.1612,0.1616,0.1619,0.1635,0,0,0.1631,0.1633,0,0,0,0,0,0,0,0,0.1297,0.1303,0.1341,0.1346,0.1353,0.1446,0.1441,0.1494,0.1503,0.1449,0.1504,0.1505,0.1554,0.1563,0.1588,0.164,0.1645,0.1632,0.1634,0.1636,0.1637,0,0,0,0,0,0,0,0.1292,0.1299,0.1346,0.1342,0.135,0.1408,0.1417,0.1452,0.1499,0.1454,0.146,0.1471,0.1558,0.1584,0.1591,0.1646,0.1632,0.1635,0.1638,0.1639,0.168,0.1679,0,0,0,0,0,0,0.1266,0.1293,0.1342,0.135,0.1324,0.1408,0.1418,0.1417,0.1499,0.1512,0.1471,0.1474,0.1578,0.1587,0.1596,0.1546,0.1636,0.164,0.1642,0.1681,0.168,0.1678,0,0,0,0,0,0,0.1264,0.1269,0.1337,0.1324,0.1337,0.1407,0.1406,0.1419,0.1439,0.1511,0.1524,0.1476,0.1578,0.159,0.1621,0.1553,0.1641,0.1645,0.1683,0.1681,0.1679,0.1492,0,0,0,0,0,0,0.1262,0.1267,0.1257,0.1322,0.1336,0.1342,0.1406,0.1421,0.1445,0.1451,0.152,0.1531,0.158,0.1615,0.1625,0.156,0.1648,0.1684,0.1682,0.168,0.15,0.1484,0.1471,0,0,0,0,0,0.1259,0.1226,0.1255,0.1261,0.1319,0.134,0.1351,0.1407,0.1444,0.1431,0.1496,0.1529,0.1606,0.1618,0.163,0.1564,0.1686,0.1683,0.168,0.1507,0.1487,0.1471,0,0,0,0,0,0,0.1177,0.1233,0.1266,0.1248,0.1281,0.1352,0.1345,0.1395,0.1438,0.1445,0.1525,0.154,0.1537,0.1589,0.16,0.1573,0.1646,0.1645,0.151,0.1492,0.1478,0.1487,0.1651,0,0,0,0,0,0.1159,0.1153,0.1214,0.1194,0.1206,0.1278,0.1296,0.1334,0.1384,0.1404,0.1452,0.1504,0.1536,0.1546,0.1585,0.1576,0.1666,0.1541,0.1526,0.1513,0.1531,0.1636,0.1632,0.1669,0.1669,0.1669,0,0,0.1113,0.1149,0.114,0.1178,0.121,0.1203,0.1288,0.1295,0.1287,0.1407,0.14,0.1456,0.1527,0.1513,0.1514,0.1545,0.1539,0.151,0.1497,0.1524,0.1632,0.1629,0.1626,0.1667,0.1667,0.1668,0,0,0.1021,0.1056,0.1024,0.1048,0.1091,0.1135,0.113,0.1188,0.1209,0.1223,0.13,0.1328,0.1371,0.1405,0.1431,0.1365,0.1463,0.136,0.1283,0.1381,0.138,0.138,0.144,0.1447,0.1345,0.1345,0.1345,0,0.0968,0.0957,0.1012,0.0994,0.1013,0.1093,0.1069,0.1088,0.1147,0.1173,0.119,0.1291,0.1319,0.1343,0.1301,0.1326,0.1405,0.1333,0.1362,0.1364,0.1367,0.1431,0.1441,0.1335,0.1337,0.1338,0.1338,0,0.0858,0.0862,0.0839,0.0853,0.0865,0.0859,0.0903,0.0909,0.0953,0.1001,0.104,0.1107,0.1187,0.116,0.1201,0.1222,0.1276,0.1333,0.1402,0.1352,0.1422,0.1435,0.1322,0.1325,0.1328,0.1331,0,0,0.0725,0.0762,0.0757,0.0811,0.0809,0.0852,0.0785,0.082,0.0862,0.0871,0.0929,0.0929,0.1016,0.1054,0.1113,0.116,0.1194,0.1237,0.1247,0.1288,0.1403,0.1291,0.1296,0.1271,0.1273,0.1275,0.1424,0,0.0639,0.0642,0.0643,0.0659,0.0693,0.0728,0.0708,0.0742,0.0776,0.0839,0.0889,0.0966,0.0961,0.1026,0.1059,0.1203,0.1232,0.1148,0.1456,0.1464,0.1365,0.1309,0.1242,0.1357,0.1439,0.1441,0.1443,0,0.0544,0.0591,0.059,0.0704,0.0715,0.0716,0.0791,0.0791,0.0833,0.0862,0.0904,0.0969,0.1026,0.1049,0.122,0.1179,0.1264,0.1345,0.1355,0.1337,0.1379,0.1434,0.1381,0.142,0.1466,0.1464,0.1462,0,0.0554,0.0579,0.0621,0.0639,0.0719,0.0738,0.0787,0.0816,0.0877,0.0911,0.0969,0.1027,0.1123,0.1223,0.1312,0.1305,0.1511,0.1542,0.1508,0.1502,0.1549,0.1541,0.157,0.1653,0.1653,0.1652,0.1652,0,0.0521,0.0578,0.0661,0.0705,0.0796,0.0831,0.0916,0.0938,0.101,0.1099,0.1044,0.1121,0.1181,0.1272,0.1346,0.145,0.1545,0.1489,0.1534,0.1472,0.1455,0.1579,0.1613,0.1658,0.1656,0.1655,0.1654,0,0.0552,0.0578,0.0674,0.0773,0.0814,0.0905,0.103,0.11,0.1142,0.1249,0.1267,0.1261,0.1317,0.1343,0.1501,0.1511,0.1626,0.1624,0.1502,0.1524,0.1478,0.1504,0.1626,0.1675,0.1622,0.162,0.1618,0,0.0592,0.063,0.0746,0.0815,0.0868,0.0998,0.1068,0.1153,0.1221,0.134,0.1398,0.1425,0.1401,0.1506,0.1478,0.1525,0.1596,0.1521,0.1462,0.1444,0.1512,0.154,0.1578,0.1458,0.1455,0.1453,0.1451,0,0.0677,0.0691,0.0768,0.0894,0.0992,0.1099,0.1219,0.1288,0.1383,0.1455,0.1556,0.1552,0.1511,0.1433,0.1376,0.1418,0.1513,0.1471,0.1535,0.1427,0.1392,0.1471,0.137,0.1431,0.1433,0.1434,0.1435,0.1436,0.0756,0.0802,0.0878,0.1,0.1095,0.1186,0.1263,0.1349,0.1458,0.1542,0.1625,0.1602,0.1479,0.1324,0.1353,0.1295,0.1366,0.1324,0.1374,0.1417,0.1397,0.1188,0.1233,0.1233,0.1234,0.1235,0.1235,0,0.0873,0.0895,0.0996,0.1116,0.1204,0.124,0.1351,0.1397,0.1469,0.1514,0.1593,0.1549,0.1386,0.1295,0.1169,0.121,0.1283,0.127,0.1343,0.1404,0.13,0.1218,0.1161,0.116,0.116,0.116,0.116,0.116,0.0939,0.102,0.1042,0.1193,0.1262,0.1348,0.1388,0.1437,0.1468,0.1486,0.1473,0.1489,0.1385,0.1266,0.1216,0.1241,0.1383,0.1329,0.1462,0.1404,0.1415,0.1425,0.1355,0.1328,0.1328,0.1553,0.1555,0.1556]}],[{"header":{"parameterUnit":"m.s-1","parameterCategory":2,"la1":30.2991,"la2":30.254,"lo1":-89.0895,"lo2":-89.0444,"dy":0.0017,"dx":0.0017,"nx":28,"ny":28,"refTime":"2025-11-16T09:00:00:Z","depth":"2","parameterNumber":2,"parameterNumberName":"U-component_of_CURRENTS"},"data":[0,0,0,0,0,0,0,0,0,0,0,0,0,0,0,0,0,0,0,0,0,0,0,0,0,0,0,0,0,0,0,0,0,0,0,0,0,0,0,0,0,0,0,0,0,0,0,0,0,0,0,0,0,0,0,0,0,0,-0.1841,-0.1841,0,-0.1958,-0.196,-0.1962,-0.2127,-0.2128,-0.213,-0.2131,-0.2367,-0.2372,-0.2376,0,0,0,0,0,0,0,0,0,0,0,0,0,-0.1676,-0.168,-0.1841,-0.1841,-0.1841,-0.1957,-0.196,-0.1963,-0.2126,-0.2128,-0.213,-0.2132,-0.2366,-0.2371,-0.2377,0,0,0,0,0,0,0,0,0,0,0,0,0,-0.1778,-0.1681,-0.1841,-0.1928,-0.1936,-0.1957,-0.196,-0.1964,-0.2126,-0.2128,-0.2131,-0.2133,-0.2364,-0.2371,-0.2378,-0.2372,0,0,-0.2399,-0.2402,0,0,0,0,0,0,0,0,-0.1772,-0.1786,-0.1914,-0.1921,-0.193,-0.2019,-0.1988,-0.2102,-0.2125,-0.2067,-0.2131,-0.2134,-0.2252,-0.2268,-0.2301,-0.2383,-0.2393,-0.24,-0.2404,-0.2407,-0.2409,0,0,0,0,0,0,0,-0.1765,-0.1781,-0.19,-0.1914,-0.1924,-0.1931,-0.1951,-0.201,-0.2156,-0.2072,-0.2081,-0.2073,-0.2259,-0.2293,-0.2308,-0.2397,-0.24,-0.2406,-0.241,-0.2413,-0.2576,-0.2576,0,0,0,0,0,0,-0.1728,-0.1775,-0.1896,-0.1902,-0.1841,-0.1932,-0.1954,-0.1998,-0.2153,-0.2174,-0.2071,-0.208,-0.228,-0.2299,-0.2317,-0.2425,-0.2407,-0.2414,-0.2418,-0.2576,-0.2576,-0.2576,0,0,0,0,0,0,-0.1725,-0.1739,-0.1891,-0.1827,-0.1846,-0.1931,-0.198,-0.1999,-0.2081,-0.2148,-0.2176,-0.2137,-0.2283,-0.2307,-0.2457,-0.2431,-0.2417,-0.2424,-0.2576,-0.2576,-0.2576,-0.2573,0,0,0,0,0,0,-0.172,-0.1739,-0.1757,-0.1827,-0.1848,-0.1956,-0.1977,-0.1999,-0.2063,-0.2078,-0.2212,-0.2234,-0.2287,-0.2446,-0.2464,-0.2441,-0.2429,-0.2576,-0.2576,-0.2576,-0.2573,-0.2573,-0.2573,0,0,0,0,0,-0.1715,-0.1744,-0.1759,-0.1771,-0.1873,-0.1956,-0.1972,-0.2045,-0.2063,-0.2125,-0.2232,-0.2233,-0.2455,-0.2456,-0.2475,-0.2453,-0.2576,-0.2576,-0.2576,-0.2573,-0.2573,-0.2573,0,0,0,0,0,0,-0.1683,-0.1763,-0.1782,-0.1834,-0.1903,-0.1981,-0.2021,-0.2059,-0.2186,-0.2208,-0.2285,-0.2318,-0.2429,-0.2446,-0.2443,-0.2494,-0.2492,-0.2497,-0.2483,-0.2484,-0.2483,-0.2424,-0.2435,0,0,0,0,0,-0.1673,-0.1734,-0.1798,-0.1847,-0.1879,-0.1951,-0.1987,-0.2041,-0.2142,-0.2201,-0.229,-0.2362,-0.243,-0.2471,-0.2548,-0.2596,-0.2551,-0.2575,-0.2575,-0.2575,-0.2538,-0.2454,-0.2441,-0.2577,-0.2577,-0.2577,0,0,-0.167,-0.172,-0.1753,-0.1844,-0.1903,-0.1967,-0.1989,-0.2067,-0.2142,-0.2202,-0.2354,-0.2398,-0.2454,-0.2528,-0.2566,-0.2546,-0.2523,-0.2576,-0.2575,-0.2537,-0.2452,-0.2439,-0.2426,-0.2577,-0.2577,-0.2577,0,0,-0.169,-0.1749,-0.1799,-0.1864,-0.1942,-0.1992,-0.202,-0.212,-0.2201,-0.2336,-0.237,-0.2404,-0.2552,-0.2542,-0.2562,-0.2596,-0.2548,-0.2604,-0.2536,-0.2457,-0.2443,-0.2431,-0.2392,-0.2377,-0.2576,-0.2576,-0.2576,0,-0.1682,-0.1757,-0.1825,-0.1889,-0.1928,-0.2009,-0.2063,-0.2161,-0.2302,-0.2336,-0.2403,-0.2483,-0.2543,-0.2529,-0.2542,-0.259,-0.2551,-0.2539,-0.2452,-0.2439,-0.2426,-0.2389,-0.2372,-0.2576,-0.2576,-0.2576,-0.2576,0,-0.1738,-0.18,-0.1843,-0.1953,-0.2005,-0.2081,-0.2182,-0.2271,-0.2355,-0.2406,-0.2465,-0.252,-0.2523,-0.2536,-0.2571,-0.2473,-0.2481,-0.2485,-0.2446,-0.2412,-0.2377,-0.2358,-0.2575,-0.2575,-0.2575,-0.2575,0,0,-0.1731,-0.1857,-0.1874,-0.1929,-0.2044,-0.2107,-0.2215,-0.2308,-0.2347,-0.2455,-0.2458,-0.2526,-0.2468,-0.2477,-0.2456,-0.238,-0.2287,-0.2382,-0.2378,-0.2331,-0.2128,-0.2024,-0.1994,-0.2269,-0.2265,-0.2262,-0.2152,0,-0.1763,-0.185,-0.1916,-0.2029,-0.2078,-0.2175,-0.2271,-0.2355,-0.2418,-0.2457,-0.2443,-0.2454,-0.2473,-0.2422,-0.2353,-0.2319,-0.2232,-0.2317,-0.2176,-0.2172,-0.2071,-0.1965,-0.1878,-0.176,-0.2134,-0.2131,-0.2128,0,-0.1797,-0.1845,-0.192,-0.2053,-0.2089,-0.2182,-0.2274,-0.237,-0.2412,-0.2429,-0.2363,-0.2354,-0.2256,-0.2272,-0.2142,-0.2196,-0.2139,-0.2109,-0.2104,-0.1978,-0.2029,-0.1847,-0.1712,-0.2097,-0.21,-0.2102,-0.2104,0,-0.1743,-0.1869,-0.1921,-0.1971,-0.2116,-0.2194,-0.2291,-0.2352,-0.2385,-0.2352,-0.2298,-0.2224,-0.216,-0.2077,-0.2034,-0.2066,-0.19,-0.194,-0.1788,-0.1784,-0.166,-0.1649,-0.1792,-0.1792,-0.1792,-0.1792,-0.1793,0,-0.174,-0.1808,-0.1918,-0.1977,-0.2068,-0.2172,-0.2256,-0.2318,-0.2309,-0.228,-0.2247,-0.2143,-0.21,-0.202,-0.1982,-0.1824,-0.185,-0.1725,-0.1711,-0.1663,-0.1654,-0.1909,-0.1924,-0.1788,-0.1789,-0.179,-0.1791,0,-0.1658,-0.1749,-0.1835,-0.1988,-0.206,-0.2116,-0.2261,-0.2272,-0.2272,-0.2198,-0.2156,-0.2066,-0.1942,-0.1907,-0.1782,-0.1733,-0.1617,-0.1552,-0.1519,-0.1498,-0.1574,-0.1591,-0.1341,-0.1336,-0.1331,-0.1327,-0.1324,0,-0.163,-0.1654,-0.1815,-0.187,-0.1962,-0.2073,-0.2144,-0.2233,-0.2211,-0.2134,-0.2068,-0.193,-0.1766,-0.1576,-0.1481,-0.1348,-0.146,-0.1197,-0.1204,-0.1497,-0.151,-0.1535,-0.1557,-0.1078,-0.1073,-0.1069,-0.1065,0,-0.1538,-0.1594,-0.1632,-0.1736,-0.1848,-0.1944,-0.2062,-0.2031,-0.2078,-0.1964,-0.1808,-0.1662,-0.1486,-0.1267,-0.112,-0.1055,-0.1215,-0.1103,-0.137,-0.1199,-0.1236,-0.1255,-0.1287,-0.1029,-0.1033,-0.1035,-0.1037,-0.1039,-0.1447,-0.1425,-0.1486,-0.1572,-0.1689,-0.1779,-0.1772,-0.1809,-0.1726,-0.1534,-0.1567,-0.1309,-0.1247,-0.0904,-0.0825,-0.0797,-0.087,-0.0857,-0.0875,-0.0896,-0.0877,-0.0902,-0.0633,-0.0635,-0.0636,-0.0637,-0.0638,0,-0.1299,-0.1303,-0.1343,-0.143,-0.1449,-0.1621,-0.1663,-0.1563,-0.1376,-0.1292,-0.1119,-0.0912,-0.071,-0.0685,-0.0549,-0.0484,-0.0544,-0.0492,-0.0595,-0.0629,-0.066,-0.0636,-0.0325,-0.0324,-0.0323,-0.0322,0,0,-0.1227,-0.1182,-0.119,-0.1171,-0.1239,-0.1229,-0.1211,-0.1077,-0.0988,-0.0758,-0.0643,-0.063,-0.0625,-0.0475,-0.0429,-0.0354,-0.0498,-0.0336,-0.0584,-0.0739,-0.0769,-0.0858,-0.0855,0,0,0,0,0]},{"header":{"parameterUnit":"m.s-1","parameterCategory":2,"la1":30.2991,"la2":30.254,"lo1":-89.0895,"lo2":-89.0444,"dy":0.0017,"dx":0.0017,"nx":28,"ny":28,"refTime":"2025-11-16T09:00:00:Z","depth":"2","parameterNumber":3,"parameterNumberName":"V-component_of_CURRENTS"},"data":[0,0,0,0,0,0,0,0,0,0,0,0,0,0,0,0,0,0,0,0,0,0,0,0,0,0,0,0,0,0,0,0,0,0,0,0,0,0,0,0,0,0,0,0,0,0,0,0,0,0,0,0,0,0,0,0,0,0,-0.1081,-0.1081,0,-0.1039,-0.1039,-0.1038,-0.1008,-0.1007,-0.1007,-0.1007,-0.0665,-0.0657,-0.0648,0,0,0,0,0,0,0,0,0,0,0,0,0,-0.1084,-0.1085,-0.1081,-0.1081,-0.108,-0.1039,-0.1039,-0.1038,-0.1008,-0.1007,-0.1007,-0.1007,-0.0668,-0.0658,-0.0647,0,0,0,0,0,0,0,0,0,0,0,0,0,-0.1068,-0.1085,-0.1082,-0.1059,-0.1057,-0.1039,-0.1039,-0.1038,-0.1008,-0.1007,-0.1007,-0.1006,-0.0672,-0.0659,-0.0646,-0.0575,0,0,-0.0606,-0.06,0,0,0,0,0,0,0,0,-0.1069,-0.1068,-0.1063,-0.1061,-0.1058,-0.1027,-0.0915,-0.0868,-0.1008,-0.1028,-0.1007,-0.1006,-0.0758,-0.0738,-0.0737,-0.0559,-0.0545,-0.0604,-0.0596,-0.0591,-0.0587,0,0,0,0,0,0,0,-0.107,-0.1069,-0.1066,-0.1063,-0.1059,-0.1034,-0.1031,-0.0907,-0.0891,-0.1026,-0.1023,-0.1017,-0.0755,-0.075,-0.0728,-0.0539,-0.0605,-0.0593,-0.0585,-0.058,-0.0137,-0.0133,0,0,0,0,0,0,-0.1077,-0.1071,-0.1067,-0.1064,-0.1061,-0.1034,-0.1032,-0.1039,-0.0899,-0.088,-0.1018,-0.1016,-0.0773,-0.0743,-0.0715,-0.047,-0.0591,-0.0579,-0.0571,-0.0141,-0.0136,-0.0132,0,0,0,0,0,0,-0.1077,-0.1077,-0.1069,-0.1065,-0.1062,-0.1035,-0.1043,-0.1038,-0.1023,-0.0896,-0.0871,-0.1007,-0.0771,-0.0734,-0.055,-0.0461,-0.0573,-0.0561,-0.0145,-0.0139,-0.0134,-0.0074,0,0,0,0,0,0,-0.1078,-0.1078,-0.1085,-0.1066,-0.1062,-0.1047,-0.1043,-0.1037,-0.102,-0.1018,-0.0877,-0.0847,-0.0768,-0.057,-0.0537,-0.0445,-0.055,-0.015,-0.0143,-0.0136,-0.0081,-0.0067,-0.0055,0,0,0,0,0,-0.1078,-0.1074,-0.1087,-0.1086,-0.1074,-0.1046,-0.1042,-0.1021,-0.102,-0.1008,-0.0881,-0.0851,-0.0501,-0.0556,-0.0518,-0.042,-0.0154,-0.0145,-0.0136,-0.0087,-0.007,-0.0056,0,0,0,0,0,0,-0.1071,-0.1071,-0.1083,-0.108,-0.1065,-0.104,-0.1024,-0.102,-0.0924,-0.0908,-0.0791,-0.0748,-0.0557,-0.0499,-0.0563,-0.0273,-0.0326,-0.0309,-0.0302,-0.0284,-0.0272,-0.0325,-0.0539,0,0,0,0,0,-0.1079,-0.1081,-0.1074,-0.1071,-0.1064,-0.105,-0.1038,-0.1031,-0.095,-0.0915,-0.0801,-0.0661,-0.0497,-0.0403,-0.0274,-0.0108,-0.0121,-0.0024,-0.0011,-0.0001,-0.0018,0.0025,0.0038,-0.0103,-0.0103,-0.0103,0,0,-0.1077,-0.1075,-0.1078,-0.1071,-0.1059,-0.1032,-0.104,-0.1022,-0.0965,-0.088,-0.0735,-0.0612,-0.0445,-0.0254,-0.0165,-0.0188,0.0039,0.001,0.0018,-0.0005,0.0035,0.0048,0.0059,-0.0097,-0.0098,-0.0099,0,0,-0.1061,-0.1072,-0.1067,-0.1054,-0.1042,-0.1022,-0.1016,-0.0978,-0.0923,-0.0786,-0.0685,-0.0519,-0.0297,-0.0154,-0.005,0.0109,0.0099,0.0162,0.0203,0.0246,0.0256,0.0265,0.0275,0.0284,0.0176,0.0176,0.0176,0,-0.1061,-0.106,-0.1058,-0.1042,-0.1026,-0.1013,-0.0994,-0.0925,-0.0821,-0.0731,-0.0728,-0.0385,-0.0249,0.0008,0.0077,0.0139,0.0137,0.0131,0.0257,0.0265,0.0273,0.0281,0.029,0.018,0.018,0.0179,0.0179,0,-0.1049,-0.1039,-0.1026,-0.1005,-0.0981,-0.0963,-0.089,-0.0825,-0.0757,-0.0661,-0.0429,-0.0262,-0.0065,0.0027,0.0118,0.0286,0.0259,0.0256,0.02,0.029,0.0294,0.0303,0.0186,0.0184,0.0183,0.0182,0,0,-0.1065,-0.1031,-0.1024,-0.1012,-0.0969,-0.0947,-0.0834,-0.0711,-0.0607,-0.0472,-0.0331,-0.0031,0.0032,0.0149,0.0271,0.0334,0.0415,0.0324,0.0325,0.0303,0.0481,0.0345,0.034,0.0425,0.0427,0.0428,0.0463,0,-0.1058,-0.1039,-0.1008,-0.0959,-0.0945,-0.0886,-0.0762,-0.0639,-0.0515,-0.0364,-0.0179,0.0013,0.0094,0.0187,0.0272,0.0375,0.0438,0.0404,0.0423,0.0423,0.0266,0.0346,0.0365,0.0386,0.047,0.0472,0.0473,0,-0.1058,-0.1044,-0.1021,-0.0933,-0.0914,-0.0867,-0.0717,-0.0591,-0.036,-0.0257,-0.008,0.0037,0.0224,0.0221,0.0407,0.0375,0.0436,0.0484,0.0486,0.0333,0.0302,0.0313,0.0397,0.0486,0.0485,0.0484,0.0483,0,-0.1102,-0.104,-0.1027,-0.1011,-0.0907,-0.0856,-0.0762,-0.0551,-0.0421,-0.0204,-0.0142,0.0088,0.0165,0.0274,0.0378,0.0399,0.049,0.0528,0.0466,0.0456,0.0459,0.0445,0.0627,0.0627,0.0627,0.0627,0.0627,0,-0.1117,-0.1092,-0.1048,-0.105,-0.097,-0.0869,-0.0722,-0.0598,-0.0405,-0.0258,-0.0089,-0.0025,0.0171,0.0244,0.0351,0.0401,0.047,0.0467,0.0459,0.0482,0.047,0.0541,0.0531,0.0628,0.0628,0.0628,0.0628,0,-0.1142,-0.1133,-0.1106,-0.103,-0.1005,-0.0928,-0.0755,-0.064,-0.0456,-0.0313,-0.0266,-0.0104,-0.0014,0.0133,0.0284,0.0337,0.0416,0.0419,0.0404,0.0392,0.037,0.0363,0.0377,0.0373,0.0369,0.0366,0.0363,0,-0.115,-0.1149,-0.1119,-0.112,-0.1092,-0.097,-0.0891,-0.0688,-0.0589,-0.0382,-0.0362,-0.0246,-0.0189,-0.0054,0.0098,0.0229,0.0297,0.0282,0.0333,0.0355,0.0347,0.0346,0.0344,0.039,0.0388,0.0386,0.0384,0,-0.1144,-0.1145,-0.1131,-0.115,-0.1125,-0.1039,-0.0932,-0.0886,-0.0649,-0.0584,-0.0526,-0.0482,-0.032,-0.0186,-0.0031,0.0059,0.0261,0.024,0.0307,0.0406,0.0357,0.0351,0.0352,0.0368,0.037,0.0371,0.0372,0.0373,-0.1127,-0.1118,-0.114,-0.1137,-0.1132,-0.1115,-0.1036,-0.0964,-0.0867,-0.0716,-0.0705,-0.0593,-0.0414,-0.0199,-0.0066,0.0098,0.01,0.0183,0.0195,0.0207,0.0158,0.01,0.0055,0.0055,0.0054,0.0054,0.0054,0,-0.1089,-0.1103,-0.1125,-0.1134,-0.1132,-0.1126,-0.106,-0.0964,-0.0907,-0.0814,-0.0749,-0.0577,-0.0438,-0.0218,0.0011,0.0088,0.0181,0.0122,0.0261,0.0272,0.0284,0.0246,0.0163,0.0164,0.0164,0.0165,0,0,-0.1075,-0.1081,-0.1098,-0.1116,-0.1128,-0.1083,-0.1047,-0.0972,-0.0869,-0.0782,-0.0683,-0.0603,-0.0397,-0.0213,-0.0066,0.0072,0.0159,0.009,-0.0012,0.0147,0.0158,0.0293,0.024,0,0,0,0,0]}],[{"header":{"parameterUnit":"m.s-1","parameterCategory":2,"la1":30.2991,"la2":30.254,"lo1":-89.0895,"lo2":-89.0444,"dy":0.0017,"dx":0.0017,"nx":28,"ny":28,"refTime":"2025-11-16T09:00:00:Z","depth":"4","parameterNumber":2,"parameterNumberName":"U-component_of_CURRENTS"},"data":[0,0,0,0,0,0,0,0,0,0,0,0,0,0,0,0,0,0,0,0,0,0,0,0,0,0,0,0,0,0,0,0,0,0,0,0,0,0,0,0,0,0,0,0,0,0,0,0,0,0,0,0,0,0,0,0,0,0,-0.0841,-0.0841,0,-0.0906,-0.0907,-0.0908,-0.0941,-0.0941,-0.0941,-0.0941,-0.0959,-0.0959,-0.096,0,0,0,0,0,0,0,0,0,0,0,0,0,-0.0776,-0.0777,-0.084,-0.0842,-0.0843,-0.0906,-0.0907,-0.0908,-0.0941,-0.0941,-0.0941,-0.0941,-0.0959,-0.0959,-0.096,0,0,0,0,0,0,0,0,0,0,0,0,0,-0.0817,-0.0777,-0.084,-0.0868,-0.0871,-0.0906,-0.0907,-0.0908,-0.0941,-0.0941,-0.0941,-0.0941,-0.0959,-0.0959,-0.096,-0.0956,0,0,-0.0961,-0.0961,0,0,0,0,0,0,0,0,-0.0815,-0.0819,-0.0863,-0.0866,-0.087,-0.0917,-0.0891,-0.0923,-0.0941,-0.0912,-0.0941,-0.0942,-0.0942,-0.0944,-0.0953,-0.0957,-0.0958,-0.0961,-0.0961,-0.0962,-0.0962,0,0,0,0,0,0,0,-0.0812,-0.0817,-0.0865,-0.0864,-0.0868,-0.0889,-0.0894,-0.0897,-0.0922,-0.0915,-0.0918,-0.0928,-0.0943,-0.0953,-0.0954,-0.0958,-0.0961,-0.0962,-0.0962,-0.0962,-0.0999,-0.1,0,0,0,0,0,0,-0.0806,-0.0814,-0.0863,-0.0867,-0.0845,-0.089,-0.0896,-0.09,-0.0923,-0.0928,-0.0928,-0.093,-0.0952,-0.0953,-0.0954,-0.0995,-0.0962,-0.0962,-0.0962,-0.0998,-0.0999,-0.1,0,0,0,0,0,0,-0.0804,-0.0809,-0.086,-0.0844,-0.0852,-0.089,-0.0895,-0.0901,-0.0927,-0.0934,-0.0938,-0.0949,-0.0952,-0.0954,-0.0969,-0.0994,-0.0962,-0.0963,-0.0997,-0.0998,-0.0999,-0.1047,0,0,0,0,0,0,-0.0802,-0.0808,-0.0818,-0.0843,-0.0853,-0.0886,-0.0895,-0.0903,-0.0933,-0.0936,-0.0953,-0.0954,-0.0953,-0.0968,-0.0969,-0.0994,-0.0963,-0.0996,-0.0998,-0.0999,-0.1045,-0.105,-0.1054,0,0,0,0,0,-0.0799,-0.081,-0.0818,-0.0825,-0.0862,-0.0887,-0.0893,-0.092,-0.0934,-0.0944,-0.0958,-0.0954,-0.0978,-0.0969,-0.097,-0.0995,-0.0996,-0.0997,-0.0999,-0.1042,-0.1049,-0.1054,0,0,0,0,0,0,-0.0784,-0.0815,-0.0825,-0.0843,-0.0866,-0.0893,-0.0914,-0.0929,-0.095,-0.0957,-0.0961,-0.0963,-0.0986,-0.0981,-0.0971,-0.1009,-0.0987,-0.0989,-0.102,-0.1026,-0.103,-0.1017,-0.0963,0,0,0,0,0,-0.0785,-0.0805,-0.083,-0.0847,-0.086,-0.0889,-0.0907,-0.0924,-0.0943,-0.0954,-0.0965,-0.0977,-0.0991,-0.1001,-0.1006,-0.1025,-0.1006,-0.1042,-0.1047,-0.1051,-0.104,-0.1044,-0.1048,-0.1005,-0.1005,-0.1005,0,0,-0.0787,-0.0806,-0.0818,-0.0846,-0.0869,-0.0883,-0.0901,-0.0931,-0.0944,-0.0951,-0.0975,-0.0992,-0.0998,-0.1023,-0.1033,-0.1024,-0.1052,-0.1053,-0.1056,-0.1043,-0.1046,-0.105,-0.1054,-0.1006,-0.1006,-0.1006,0,0,-0.0793,-0.0813,-0.0831,-0.0847,-0.0882,-0.0895,-0.0905,-0.0937,-0.0956,-0.0978,-0.0992,-0.1019,-0.1035,-0.105,-0.1059,-0.1089,-0.1074,-0.1102,-0.112,-0.1124,-0.1127,-0.113,-0.1105,-0.1105,-0.1108,-0.1108,-0.1108,0,-0.0793,-0.0813,-0.0839,-0.0854,-0.0872,-0.0898,-0.0914,-0.0932,-0.0964,-0.0979,-0.0987,-0.1031,-0.1044,-0.1076,-0.1097,-0.11,-0.1092,-0.1101,-0.113,-0.1132,-0.1134,-0.1108,-0.1108,-0.111,-0.111,-0.111,-0.1109,0,-0.08,-0.0825,-0.0836,-0.0861,-0.0881,-0.0901,-0.0925,-0.0946,-0.0971,-0.0987,-0.1027,-0.1052,-0.1078,-0.1099,-0.1111,-0.1144,-0.113,-0.1134,-0.1116,-0.1141,-0.1112,-0.1111,-0.1114,-0.1113,-0.1112,-0.1111,0,0,-0.0778,-0.0832,-0.0838,-0.0856,-0.0888,-0.0903,-0.0927,-0.0955,-0.097,-0.1006,-0.1025,-0.1078,-0.1101,-0.1111,-0.1141,-0.1157,-0.1174,-0.1162,-0.1161,-0.1136,-0.1168,-0.1079,-0.1069,-0.1194,-0.1194,-0.1195,-0.114,0,-0.0778,-0.0808,-0.0837,-0.0866,-0.0882,-0.0914,-0.093,-0.0958,-0.0982,-0.0999,-0.1039,-0.1063,-0.1103,-0.1127,-0.1154,-0.1161,-0.1174,-0.1187,-0.1146,-0.1144,-0.1062,-0.1066,-0.1195,-0.1138,-0.1138,-0.1138,-0.1137,0,-0.0769,-0.0794,-0.0822,-0.0872,-0.0883,-0.09,-0.0935,-0.0956,-0.0982,-0.1006,-0.1043,-0.1057,-0.1093,-0.1119,-0.1146,-0.1156,-0.1169,-0.1173,-0.1171,-0.1067,-0.1053,-0.1108,-0.1135,-0.1135,-0.1135,-0.1135,-0.1135,0,-0.0727,-0.0785,-0.0809,-0.0822,-0.087,-0.0896,-0.0926,-0.0958,-0.0969,-0.1007,-0.1005,-0.1052,-0.1058,-0.1092,-0.1108,-0.1132,-0.1112,-0.1138,-0.1065,-0.1058,-0.1134,-0.1132,-0.1153,-0.1153,-0.1153,-0.1153,-0.1154,0,-0.0699,-0.0725,-0.0796,-0.0798,-0.0827,-0.0879,-0.0905,-0.0936,-0.0964,-0.096,-0.1009,-0.0998,-0.1055,-0.1047,-0.1083,-0.105,-0.109,-0.1052,-0.1038,-0.1154,-0.1155,-0.1133,-0.1131,-0.1151,-0.1152,-0.1152,-0.1152,0,-0.0649,-0.069,-0.072,-0.0782,-0.0801,-0.0824,-0.0882,-0.089,-0.0931,-0.0922,-0.0927,-0.0942,-0.0933,-0.0964,-0.0986,-0.0987,-0.0983,-0.0969,-0.1059,-0.1053,-0.0933,-0.0935,-0.0871,-0.0867,-0.0864,-0.0862,-0.086,0,-0.063,-0.0637,-0.0692,-0.07,-0.0733,-0.0779,-0.0794,-0.086,-0.0867,-0.0876,-0.0853,-0.0839,-0.0851,-0.0795,-0.0853,-0.0871,-0.089,-0.0871,-0.0937,-0.0912,-0.0905,-0.0911,-0.0917,-0.0855,-0.0854,-0.0853,-0.0853,0,-0.059,-0.061,-0.0627,-0.0643,-0.0665,-0.0683,-0.0722,-0.0715,-0.0771,-0.0806,-0.0761,-0.0746,-0.0717,-0.0733,-0.0738,-0.0769,-0.0872,-0.084,-0.0848,-0.091,-0.0891,-0.0889,-0.0898,-0.0842,-0.0844,-0.0844,-0.0845,0,-0.0566,-0.0565,-0.058,-0.0589,-0.0601,-0.0582,-0.0615,-0.0629,-0.0642,-0.0677,-0.0653,-0.0662,-0.069,-0.0676,-0.0687,-0.0692,-0.0711,-0.0719,-0.0734,-0.0746,-0.0736,-0.0696,-0.0559,0,0,0,0,0,-0.0543,-0.0527,-0.0527,-0.0519,-0.0522,-0.0527,-0.0557,-0.0595,-0.0647,-0.0597,-0.0632,-0.0612,-0.06,-0.0607,-0.0593,-0.0639,-0.0714,-0.062,-0.0732,-0.0784,-0.0796,-0.0798,0,0,0,0,0,0,-0.0524,-0.0523,-0.0509,-0.0456,-0.0434,-0.0429,-0.0443,-0.0475,-0.047,-0.0526,-0.0527,-0.0572,-0.0576,-0.0595,-0.0575,-0.0582,-0.0641,-0.0644,-0.0642,-0.0777,-0.0788,-0.0797,-0.0804,0,0,0,0,0]},{"header":{"parameterUnit":"m.s-1","parameterCategory":2,"la1":30.2991,"la2":30.254,"lo1":-89.0895,"lo2":-89.0444,"dy":0.0017,"dx":0.0017,"nx":28,"ny":28,"refTime":"2025-11-16T09:00:00:Z","depth":"4","parameterNumber":3,"parameterNumberName":"V-component_of_CURRENTS"},"data":[0,0,0,0,0,0,0,0,0,0,0,0,0,0,0,0,0,0,0,0,0,0,0,0,0,0,0,0,0,0,0,0,0,0,0,0,0,0,0,0,0,0,0,0,0,0,0,0,0,0,0,0,0,0,0,0,0,0,-0.0696,-0.0696,0,-0.072,-0.072,-0.072,-0.0751,-0.0751,-0.0752,-0.0752,-0.0742,-0.0741,-0.0741,0,0,0,0,0,0,0,0,0,0,0,0,0,-0.0667,-0.0668,-0.0696,-0.0696,-0.0696,-0.072,-0.072,-0.072,-0.0751,-0.0752,-0.0752,-0.0752,-0.0742,-0.0741,-0.0741,0,0,0,0,0,0,0,0,0,0,0,0,0,-0.0685,-0.0668,-0.0696,-0.0713,-0.0715,-0.0719,-0.072,-0.072,-0.0751,-0.0752,-0.0752,-0.0753,-0.0743,-0.0742,-0.0741,-0.0722,0,0,-0.0738,-0.0737,0,0,0,0,0,0,0,0,-0.0684,-0.0686,-0.0711,-0.0712,-0.0714,-0.0732,-0.0706,-0.0719,-0.0751,-0.0738,-0.0752,-0.0753,-0.0734,-0.0734,-0.0739,-0.0722,-0.0722,-0.0738,-0.0737,-0.0737,-0.0736,0,0,0,0,0,0,0,-0.0683,-0.0686,-0.0706,-0.0711,-0.0713,-0.0717,-0.072,-0.0709,-0.0733,-0.074,-0.0742,-0.0742,-0.0735,-0.074,-0.0739,-0.0721,-0.0738,-0.0737,-0.0736,-0.0736,-0.0738,-0.0739,0,0,0,0,0,0,-0.0678,-0.0684,-0.0705,-0.0707,-0.0699,-0.0717,-0.0721,-0.0727,-0.0734,-0.0736,-0.0742,-0.0744,-0.0742,-0.074,-0.0739,-0.0752,-0.0737,-0.0736,-0.0735,-0.0738,-0.0738,-0.0739,0,0,0,0,0,0,-0.0677,-0.068,-0.0705,-0.0695,-0.0698,-0.0717,-0.0723,-0.0727,-0.0744,-0.0736,-0.0737,-0.0756,-0.0742,-0.074,-0.0749,-0.0751,-0.0735,-0.0734,-0.0737,-0.0738,-0.0739,-0.0756,0,0,0,0,0,0,-0.0676,-0.0679,-0.0688,-0.0695,-0.0699,-0.0718,-0.0722,-0.0727,-0.0742,-0.0745,-0.0748,-0.0747,-0.0742,-0.0751,-0.0749,-0.0749,-0.0734,-0.0736,-0.0737,-0.0738,-0.0755,-0.0758,-0.076,0,0,0,0,0,-0.0675,-0.068,-0.0688,-0.0691,-0.0708,-0.0718,-0.0721,-0.0736,-0.0742,-0.0753,-0.0761,-0.0748,-0.0757,-0.0751,-0.0748,-0.0748,-0.0735,-0.0737,-0.0738,-0.0754,-0.0757,-0.076,0,0,0,0,0,0,-0.067,-0.0683,-0.0693,-0.0701,-0.0715,-0.0723,-0.0734,-0.0741,-0.0756,-0.0763,-0.0755,-0.0755,-0.0764,-0.0756,-0.075,-0.0754,-0.0744,-0.0745,-0.0756,-0.0759,-0.0762,-0.0763,-0.0733,0,0,0,0,0,-0.0672,-0.0682,-0.0695,-0.0703,-0.0712,-0.0725,-0.0733,-0.0744,-0.0754,-0.0762,-0.0763,-0.0765,-0.0765,-0.0764,-0.0764,-0.0762,-0.0754,-0.0762,-0.0764,-0.0766,-0.0766,-0.0768,-0.077,-0.0744,-0.0744,-0.0744,0,0,-0.0674,-0.0681,-0.0688,-0.0703,-0.0716,-0.0727,-0.0732,-0.0749,-0.0759,-0.0756,-0.0772,-0.0774,-0.0768,-0.0774,-0.0776,-0.0768,-0.0768,-0.0768,-0.077,-0.0769,-0.077,-0.0772,-0.0774,-0.0745,-0.0745,-0.0745,0,0,-0.0675,-0.0689,-0.0699,-0.0711,-0.073,-0.0737,-0.0743,-0.076,-0.0773,-0.0786,-0.0787,-0.0799,-0.0794,-0.0795,-0.0792,-0.0809,-0.0785,-0.0803,-0.0811,-0.0813,-0.0815,-0.0817,-0.0801,-0.0801,-0.0801,-0.0801,-0.0801,0,-0.0679,-0.0691,-0.0703,-0.0714,-0.0725,-0.0741,-0.0755,-0.0765,-0.0782,-0.0789,-0.0797,-0.0806,-0.0805,-0.0807,-0.0817,-0.0814,-0.0803,-0.0798,-0.0816,-0.0817,-0.0819,-0.0802,-0.0802,-0.0802,-0.0802,-0.0802,-0.0802,0,-0.0688,-0.07,-0.0707,-0.0727,-0.0739,-0.0755,-0.0769,-0.0782,-0.0796,-0.0805,-0.0821,-0.0829,-0.0835,-0.0834,-0.0829,-0.0835,-0.0819,-0.0821,-0.0805,-0.0822,-0.0804,-0.0804,-0.0804,-0.0803,-0.0803,-0.0803,0,0,-0.069,-0.0712,-0.0716,-0.073,-0.0751,-0.0764,-0.0775,-0.0792,-0.0801,-0.0821,-0.0835,-0.0845,-0.0854,-0.0852,-0.0849,-0.0848,-0.085,-0.0837,-0.0836,-0.0817,-0.0836,-0.0739,-0.0729,-0.085,-0.085,-0.085,-0.0816,0,-0.0699,-0.0719,-0.0727,-0.0751,-0.0765,-0.078,-0.0788,-0.0803,-0.0816,-0.0832,-0.0845,-0.0859,-0.0858,-0.0866,-0.0866,-0.0862,-0.0851,-0.0858,-0.0827,-0.0826,-0.0734,-0.0727,-0.0851,-0.0816,-0.0816,-0.0816,-0.0816,0,-0.0705,-0.0717,-0.0741,-0.0766,-0.0775,-0.0792,-0.0814,-0.0825,-0.0838,-0.0848,-0.0863,-0.0871,-0.0885,-0.088,-0.0876,-0.0878,-0.0856,-0.0845,-0.0843,-0.0746,-0.0728,-0.0798,-0.0815,-0.0815,-0.0815,-0.0815,-0.0815,0,-0.0699,-0.0728,-0.075,-0.076,-0.0786,-0.0804,-0.0823,-0.0834,-0.0846,-0.0865,-0.0873,-0.0887,-0.0903,-0.089,-0.0865,-0.0875,-0.0841,-0.0857,-0.0742,-0.0735,-0.0826,-0.0825,-0.0836,-0.0836,-0.0836,-0.0836,-0.0836,0,-0.0696,-0.0717,-0.0755,-0.0767,-0.0793,-0.0815,-0.0841,-0.0851,-0.0871,-0.0882,-0.0891,-0.0895,-0.0906,-0.0886,-0.0863,-0.0788,-0.084,-0.0733,-0.0717,-0.0833,-0.0833,-0.0825,-0.0824,-0.0835,-0.0835,-0.0836,-0.0836,0,-0.0676,-0.0704,-0.073,-0.0771,-0.079,-0.081,-0.0857,-0.0867,-0.0886,-0.09,-0.0909,-0.0914,-0.0879,-0.085,-0.0822,-0.0776,-0.0723,-0.0675,-0.0781,-0.0773,-0.0619,-0.062,-0.0564,-0.056,-0.0557,-0.0554,-0.0552,0,-0.0666,-0.0678,-0.073,-0.0748,-0.0772,-0.0812,-0.083,-0.0868,-0.088,-0.0902,-0.0904,-0.088,-0.0866,-0.0753,-0.0726,-0.064,-0.0621,-0.0589,-0.0621,-0.06,-0.0591,-0.0596,-0.0601,-0.0547,-0.0546,-0.0545,-0.0544,0,-0.0641,-0.0665,-0.0684,-0.0725,-0.0758,-0.0788,-0.0828,-0.0836,-0.087,-0.0894,-0.0877,-0.0828,-0.0768,-0.0714,-0.0622,-0.0572,-0.0617,-0.0556,-0.0564,-0.0593,-0.0579,-0.0574,-0.0582,-0.0533,-0.0535,-0.0536,-0.0536,0,-0.0622,-0.0629,-0.0663,-0.0694,-0.0734,-0.0757,-0.0782,-0.0801,-0.0819,-0.0848,-0.0842,-0.0798,-0.0796,-0.0674,-0.0606,-0.0524,-0.0518,-0.0506,-0.0516,-0.0528,-0.0519,-0.0495,-0.04,0,0,0,0,0,-0.0599,-0.0609,-0.0634,-0.0669,-0.0707,-0.0735,-0.0774,-0.0797,-0.0835,-0.0809,-0.0825,-0.0764,-0.0655,-0.063,-0.0528,-0.0543,-0.0499,-0.0419,-0.049,-0.0472,-0.0485,-0.047,0,0,0,0,0,0,-0.0584,-0.0605,-0.0619,-0.0644,-0.0667,-0.0706,-0.0731,-0.0754,-0.0745,-0.0777,-0.0724,-0.0723,-0.0623,-0.0709,-0.0523,-0.0502,-0.0527,-0.0385,-0.0382,-0.0465,-0.0476,-0.0486,-0.0476,0,0,0,0,0]}]]